Location: Newark
(50.8311°N, 16.5142°E)
Time: 00:32:49
(UTC+00:00)

Envisat - Visible Passes

Search period start: 23 October 2019 00:00
Search period end: 02 November 2019 00:00
Orbit: 764 x 766 km, 98.1° (Epoch: 22 October)

Date Brightness Start Highest point End Pass type
(mag) Time Alt. Az. Time Alt. Az. Time Alt. Az.
23 Oct 6.3 04:24:19 10° ENE 04:26:42 13° E 04:29:05 10° ESE visible
23 Oct 4.1 17:21:14 10° S 17:26:07 47° W 17:31:03 10° NNW visible
24 Oct 3.0 16:44:10 10° SSE 16:49:16 87° ENE 16:54:23 10° NNW visible
24 Oct 6.0 18:26:05 10° WSW 18:29:00 15° W 18:31:56 10° NW visible
25 Oct 5.9 04:48:41 10° NE 04:52:34 22° E 04:56:25 10° SE visible
25 Oct 5.0 17:47:23 10° SSW 17:51:48 30° W 17:56:15 10° NNW visible
26 Oct 6.7 04:14:18 10° ENE 04:15:15 10° E 04:16:12 10° E visible
26 Oct 3.7 17:09:48 10° S 17:14:48 58° W 17:19:51 10° NNW visible
27 Oct 2.9 16:32:57 10° SSE 16:38:00 73° ENE 16:43:06 10° N visible
27 Oct 5.7 18:14:04 10° SW 18:17:35 19° W 18:21:07 10° NW visible
28 Oct 6.0 04:37:46 10° NE 04:41:09 18° E 04:44:32 10° SE visible
28 Oct 4.6 17:35:47 10° SSW 17:40:27 36° W 17:45:08 10° NNW visible
29 Oct 3.3 16:58:26 10° S 17:03:30 72° WSW 17:08:36 10° NNW visible
29 Oct 6.2 18:41:59 10° W 18:43:28 11° W 18:44:58 10° WNW visible
30 Oct 5.4 05:02:34 10° NE 05:06:57 28° E 05:11:18 10° SSE visible
30 Oct 3.0 16:21:47 10° SSE 16:26:46 60° ENE 16:31:47 10° N visible
30 Oct 5.4 18:02:13 10° SW 18:06:11 23° W 18:10:10 10° NW visible
31 Oct 6.2 04:27:00 10° NE 04:29:44 14° E 04:32:27 10° ESE visible
31 Oct 4.2 17:24:17 10° S 17:29:07 44° W 17:33:59 10° NNW visible
01 Nov 3.0 16:47:08 10° SSE 16:52:14 87° WSW 16:57:21 10° NNW visible
01 Nov 6.0 18:29:24 10° WSW 18:32:02 14° W 18:34:40 10° NW visible
